This is the latest recevied weather packets stored in our database for station/object DB8NZ-22. If no packets are shown the sender has not sent any weather packets the latest 10 day(s).
| Time | Temp. | Humidity | Pressure | Rain* | Wind** | Luminosity | Snow |
|---|---|---|---|---|---|---|---|
| 1777799947 | 23.89° C | 35% | 1016.1 hPa | - | - | - | - |
| 1777799047 | 22.78° C | 36% | 1016.2 hPa | - | - | - | - |
| 1777798146 | 22.22° C | 38% | 1016.2 hPa | - | - | - | - |
| 1777797246 | 21.67° C | 41% | 1016.5 hPa | - | - | - | - |
| 1777796346 | 20° C | 45% | 1016.6 hPa | - | - | - | - |
| 1777795446 | 19.44° C | 46% | 1016.6 hPa | - | - | - | - |
| 1777794546 | 18.89° C | 48% | 1016.7 hPa | - | - | - | - |
| 1777793646 | 17.78° C | 49% | 1016.6 hPa | - | - | - | - |
| 1777792745 | 16.67° C | 50% | 1016.5 hPa | - | - | - | - |
| 1777791845 | 16.67° C | 51% | 1016.6 hPa | - | - | - | - |
| 1777790945 | 15.56° C | 52% | 1016.6 hPa | - | - | - | - |
| 1777790045 | 14.44° C | 54% | 1016.5 hPa | - | - | - | - |
| 1777789145 | 14.44° C | 54% | 1016.5 hPa | - | - | - | - |
| 1777788245 | 13.33° C | 54% | 1016.3 hPa | - | - | - | - |
| 1777787345 | 12.78° C | 55% | 1016.3 hPa | - | - | - | - |
| 1777786445 | 12.22° C | 56% | 1016.2 hPa | - | - | - | - |
| 1777785545 | 11.11° C | 56% | 1016.2 hPa | - | - | - | - |
| 1777784645 | 10.56° C | 56% | 1016.1 hPa | - | - | - | - |
| 1777783745 | 10.56° C | 57% | 1016.1 hPa | - | - | - | - |
| 1777782845 | 10° C | 56% | 1016.1 hPa | - | - | - | - |
| 1777781945 | 10° C | 57% | 1016.2 hPa | - | - | - | - |
| 1777781044 | 10° C | 57% | 1016.1 hPa | - | - | - | - |
| 1777780144 | 10° C | 55% | 1016.2 hPa | - | - | - | - |
| 1777779244 | 10° C | 57% | 1016.4 hPa | - | - | - | - |
| 1777778344 | 10° C | 55% | 1016.2 hPa | - | - | - | - |
* Rain since midnight (hover to see other rain measurements)
** Current wind speed in m/s (hover to see current wind gust speed)